Location: Salillas
(41.9950°N, 0.2228°W)
Time: 07:49:07
(UTC+00:00)

STARLINK-1103 - Pass Details

Date: 29 March 2020
Orbit: 548 x 551 km, 53.0° (Epoch: 04 June)

Event Time Altitude Azimuth Distance (km) Brightness Sun altitude
Rises 20:32:34 0° 309° (NW) 2,723 8.5 -23.6°
Reaches altitude 10° 20:34:53 10° 317° (NW) 1,827 7.3 -23.9°
Enters shadow 20:38:26 41° 12° (NNE) 809 4.5 -24.5°
